Showing default

IRIDIUM 117, 42808

Orbit data source: Space-Track

IRIDIUM 117, 42808 is a payload satellite owned by Iridium (US) in LEO that was launched on Sun, 25 Jun 2017 UTC via an FALCON 9 launch vehicle from the Air Force Western Test Range (AFWTR). Payload-class satellites include a variety of spacecraft equipped with specific instruments for various scientific and technological missions. These include communications satellites like Starlink; space stations such as the ISS; scientific satellites like the Hubble; Earth observation satellites from companies like Planet Labs, Umbra, and HawkEye 360; GPS; miniature CubeSats for education and research; and military/defense satellites.

Loading next visibility...
Identifier
42808, 2017-039F
Orbit
LEO
Country
Flag of USUS
Related business
Manufacturer
OATK SSG Gilbert
Mission
Operational Commercial Communications
Bus & Motor
ELITEBUS, Unknown motor
Mass
860 kg wet, 700 kg dry
Launch date (UTC)
2017-06-25 (8 years ago)
Launch vehicle
FALCON 9
Launch site
Air Force Western Test Range (AFWTR)
Object type
Payload
Rocket body
Debris
Shape & HBR
Trap Box + 2 Pan, 4.8 m
Radar Cross Section
10.154 m², Large (>1 m²)

Expand to show TLE details & history
Last TLE update: 20 hours ago

TLE from 20 hours ago
0 IRIDIUM 117
1 42808U 17039F   25304.84067265  .00000143  00000-0  43908-4 0  9990
2 42808  86.3927  89.0561 0001986  86.6644 273.4779 14.34221993437243
Epoch: 2025-10-31T20:10Z
TLE epoch observation values (Epoch: 2025-10-31T20:10:34.116Z)
Latitude
-0.00005°
Longitude
106.03462°
Altitude
780.618 km
Speed
7.464 km/s
True Right ascension
05h 56m 13s
True Declination
0° 00' 00"
Sunlit
Object was in full shadow at epoch
Visualization orbit readout
Latitude
Unknown
Longitude
Unknown
Altitude
Unknown
Speed
Unknown
Apparent Right ascension
Unknown
Apparent Declination
Unknown
Sunlit
N/A
Visualization observer readout
Local Sidereal Time
12:09:46
Azimuth
Unknown
Elevation
Unknown
Doppler factor
Unknown
Orbital elements
Apogee altitude
776.038 km
Perigee altitude
773.197 km
Semi-major axis
7,152.755 km
Eccentricity
0.0002
Inclination
86.3927°
RAAN
89.0561°
Arg. of periapsis
86.6644°
True anomaly
273.45518°
Mean anomaly
273.4779°
Eccentric anomaly
273.46654°
Mean motion
3.58784 °/min
Orbital period
100.34 mins
BSTAR
0.000043908
Loading maneuver chart data...
Computing Atmospheric mass density...
Loading historical data...
Loading historical data...
Loading historical data...
Loading historical data...
Loading historical data...
Loading historical data...
Loading historical data...

Documentation

Showing up to 5 results
|